P/2006 Q2 ( LONEOS )

Japanese version
Home page
Updated on February 4, 2007

---------------------------------------------------------------------

* Profile

Discovery Date August 29, 2006
Magnitude 18.2 mag
Discoverer Lowell Observatory Near-Earth Object Search

* Pictures

* Orbital Elements

T 2006 Sept. 2.8996 TT                                  MPC
q   1.337888             (2000.0)            P               Q
n   0.1652539      Peri.   96.8559      +0.9476779      +0.3077137
a   3.288780       Node   245.2512      -0.3171618      +0.8773472
e   0.593196       Incl.    5.3683      -0.0362636      +0.3682039
P   5.96
From 150 observations 2006 Aug. 29-Oct. 17.

* Magnitudes Graph

        m1 = 19.5 + 5 log d + 10.0 log r

---------------------------------------------------------------------

The orbital elements are published on M.P.E.C. 2006-U26.
The magnitudes graphs are made with Comet for Windows.

---------------------------------------------------------------------

Copyright(C) Seiichi Yoshida (comet@aerith.net). All rights reserved.